TimePDT,TemperatureF,Dew PointF,Humidity,Sea Level PressureIn,VisibilityMPH,Wind Direction,Wind SpeedMPH,Gust SpeedMPH,PrecipitationIn,Events,Conditions,WindDirDegrees,DateUTC
12:54 AM,61.0,54.0,78,30.07,10.0,Calm,Calm,-,N/A,,Clear,0,2013-06-28 07:54:00
1:54 AM,60.1,54.0,80,30.07,10.0,Calm,Calm,-,N/A,,Clear,0,2013-06-28 08:54:00
2:54 AM,57.9,54.0,87,30.06,10.0,Calm,Calm,-,N/A,,Clear,0,2013-06-28 09:54:00
3:54 AM,57.0,53.1,87,30.05,10.0,Calm,Calm,-,N/A,,Clear,0,2013-06-28 10:54:00
4:54 AM,57.0,53.1,87,30.04,10.0,Calm,Calm,-,N/A,,Clear,0,2013-06-28 11:54:00
5:54 AM,55.9,53.1,90,30.04,10.0,Calm,Calm,-,N/A,,Clear,0,2013-06-28 12:54:00
6:54 AM,59.0,54.0,83,30.05,10.0,Calm,Calm,-,N/A,,Clear,0,2013-06-28 13:54:00
7:54 AM,61.0,55.0,81,30.06,10.0,Calm,Calm,-,N/A,,Clear,0,2013-06-28 14:54:00
8:54 AM,62.1,55.0,78,30.06,10.0,NW,4.6,-,N/A,,Clear,310,2013-06-28 15:54:00
9:54 AM,63.0,55.0,75,30.05,10.0,WNW,4.6,-,N/A,,Clear,290,2013-06-28 16:54:00
10:54 AM,62.1,55.0,78,30.06,10.0,NW,8.1,-,N/A,,Clear,310,2013-06-28 17:54:00
11:54 AM,64.0,55.0,73,30.06,10.0,NW,6.9,-,N/A,,Clear,320,2013-06-28 18:54:00
12:54 PM,66.0,55.0,68,30.05,10.0,NNW,9.2,-,N/A,,Clear,340,2013-06-28 19:54:00
1:54 PM,64.9,55.0,70,30.04,10.0,WNW,8.1,-,N/A,,Clear,300,2013-06-28 20:54:00
2:54 PM,64.9,55.0,70,30.04,10.0,WNW,6.9,-,N/A,,Clear,290,2013-06-28 21:54:00
3:54 PM,69.1,55.9,63,30.01,10.0,NW,4.6,-,N/A,,Clear,320,2013-06-28 22:54:00
4:54 PM,68.0,55.9,65,29.99,10.0,NW,4.6,-,N/A,,Clear,310,2013-06-28 23:54:00
5:45 PM,84.2,75.2,74,29.69,10.0,SW,8.1,-,N/A,,Clear,220,2013-06-29 00:45:00
5:54 PM,70.0,55.9,61,29.99,10.0,NW,5.8,-,N/A,,Clear,310,2013-06-29 00:54:00
6:54 PM,69.1,55.9,63,29.98,10.0,West,6.9,-,N/A,,Clear,280,2013-06-29 01:54:00
7:54 PM,66.9,55.9,68,29.99,10.0,West,6.9,-,N/A,,Clear,280,2013-06-29 02:54:00
8:54 PM,64.0,55.0,73,29.99,10.0,West,3.5,-,N/A,,Clear,280,2013-06-29 03:54:00
9:54 PM,64.0,55.0,73,30.01,10.0,West,3.5,-,N/A,,Clear,270,2013-06-29 04:54:00
10:54 PM,63.0,55.0,75,30.01,10.0,West,3.5,-,N/A,,Clear,260,2013-06-29 05:54:00
11:54 PM,61.0,53.1,75,30.00,10.0,Calm,Calm,-,N/A,,Clear,0,2013-06-29 06:54:00